EW4986 Weather Reports


time (UTC)temp
C
wind
direction
speed
KPH
gust
KPH
rain 1hr
cm
rain 24hr
cm
rain mn
cm
humidity
%
barometer
mb
20260506024543 12 1 8.0 20.9 0.00 0.18 0.18 59 1012.6
20260506024045 12 62 8.0 20.9 0.00 0.18 0.18 57 1012.5
20260506023544 12 321 8.0 20.9 0.00 0.18 0.18 57 1012.4
20260506023043 13 2 9.7 24.1 0.00 0.18 0.18 56 1012.1
20260506022544 13 324 4.8 24.1 0.00 0.18 0.18 55 1012.1
20260506022044 13 302 0.0 1.6 0.00 0.18 0.18 58 1011.6
20260506021541 13 219 0.0 1.6 0.00 0.18 0.18 59 1011.4
20260506021044 13 150 0.0 0.0 0.00 0.18 0.18 58 1011.3
20260506020540 13 150 0.0 0.0 0.00 0.18 0.18 57 1011.2
20260506020039 13 150 0.0 0.0 0.00 0.18 0.18 56 1011.1
20260506015545 14 214 0.0 1.6 0.00 0.18 0.18 54 1010.7
20260506015539 13 150 0.0 1.6 0.00 0.18 0.18 55 1010.9
20260506014541 14 293 0.0 1.6 0.00 0.18 0.18 53 1010.6
20260506014046 15 209 0.0 3.2 0.00 0.18 0.18 52 1010.6
20260506014040 14 205 0.0 3.2 0.00 0.18 0.18 53 1010.6
20260506013039 15 203 0.0 3.2 0.00 0.18 0.18 52 1010.5
20260506012537 15 172 0.0 3.2 0.00 0.18 0.18 51 1010.5
20260506012037 15 294 1.6 6.4 0.00 0.18 0.18 50 1010.5
20260506011537 15 304 1.6 6.4 0.00 0.18 0.18 49 1010.6
20260506011040 15 267 1.6 6.4 0.00 0.18 0.18 49 1010.5
20260506010535 15 307 1.6 6.4 0.00 0.18 0.18 49 1010.4
20260506010034 15 304 1.6 8.0 0.00 0.18 0.18 48 1010.3
20260506005534 16 299 1.6 9.7 0.00 0.18 0.18 48 1010.4
20260506005033 16 224 1.6 9.7 0.00 0.18 0.18 47 1010.3
20260506004534 16 330 0.0 3.2 0.00 0.18 0.18 53 1010.3
20260506004034 15 279 0.0 1.6 0.00 0.18 0.18 52 1010.7
20260506003535 16 184 0.0 1.6 0.00 0.18 0.18 47 1010.6
20260506003035 16 184 0.0 1.6 0.00 0.18 0.18 48 1010.3
20260506002538 16 154 0.0 1.6 0.00 0.18 0.18 46 1010.4
20260506002533 16 154 0.0 1.6 0.00 0.18 0.18 49 1010.5
20260506001533 16 226 0.0 1.6 0.00 0.18 0.18 47 1010.4
20260506001031 16 217 0.0 1.6 0.00 0.18 0.18 47 1010.3
20260506000536 17 270 1.6 4.8 0.00 0.18 0.18 45 1010.3
20260506000530 16 217 0.0 1.6 0.00 0.18 0.18 47 1010.0
20260506000031 16 219 1.6 4.8 0.00 0.18 0.18 46 1010.2
20260505235527 17 201 1.6 4.8 0.00 0.18 0.18 46 1010.3
20260505235150 17 181 1.6 4.8 0.00 0.18 0.18 45 1010.2
20260505234029 17 251 1.6 4.8 0.00 0.18 0.18 46 1010.3
20260505233533 17 229 1.6 6.4 0.00 0.18 0.18 47 1010.3
20260505233526 17 257 0.0 6.4 0.00 0.18 0.18 46 1010.3
20260505232528 17 74 0.0 3.2 0.00 0.18 0.18 47 1010.3
20260505232027 16 120 0.0 3.2 0.00 0.18 0.18 47 1010.4
20260505231525 16 150 1.6 6.4 0.00 0.18 0.18 49 1010.5
20260505231026 16 310 3.2 9.7 0.00 0.18 0.18 49 1010.6
20260505230526 16 275 3.2 9.7 0.00 0.18 0.18 49 1010.9
20260505230028 16 309 3.2 8.0 0.00 0.18 0.18 48 1010.7
20260505225526 16 273 3.2 9.7 0.00 0.18 0.18 48 1010.7
20260505225025 16 272 3.2 11.3 0.00 0.18 0.18 48 1010.7
20260505224532 16 169 0.0 4.8 0.10 0.18 0.18 50 1010.7
20260505224526 16 309 1.6 11.3 0.05 0.18 0.18 48 1010.7
20260505223525 16 140 1.6 6.4 0.10 0.18 0.18 52 1010.7
20260505223023 16 305 0.0 6.4 0.10 0.18 0.18 50 1010.9
20260505222532 15 184 1.6 4.8 0.10 0.18 0.18 59 1011.2
20260505222524 15 303 0.0 4.8 0.10 0.18 0.18 57 1011.0
20260505221523 14 233 0.0 4.8 0.10 0.18 0.18 64 1011.3
20260505221021 13 292 0.0 3.2 0.10 0.18 0.18 69 1011.6
20260505220522 13 214 1.6 9.7 0.10 0.18 0.18 71 1011.6
20260505220021 13 296 3.2 9.7 0.10 0.18 0.18 67 1011.8
20260505215521 13 177 3.2 9.7 0.10 0.18 0.18 71 1012.3
20260505215028 14 347 3.2 14.5 0.05 0.13 0.15 61 1012.0
20260505215021 13 142 4.8 14.5 0.10 0.18 0.18 67 1012.1
20260505214520 16 294 0.0 4.8 0.00 0.08 0.08 53 1011.8
20260505213520 16 248 0.0 3.2 0.00 0.08 0.08 50 1011.8
20260505213020 16 137 0.0 3.2 0.00 0.08 0.08 47 1011.7
20260505212518 17 224 0.0 3.2 0.00 0.08 0.08 46 1011.7
20260505212018 17 126 0.0 4.8 0.00 0.08 0.08 46 1011.7
20260505211518 16 221 1.6 4.8 0.00 0.08 0.08 46 1011.6
20260505211019 17 257 1.6 8.0 0.00 0.08 0.08 47 1011.7
20260505210516 17 303 1.6 8.0 0.00 0.08 0.08 46 1011.7
20260505210022 17 271 1.6 8.0 0.00 0.08 0.08 47 1011.7
20260505210016 17 348 1.6 8.0 0.00 0.08 0.08 47 1011.8
20260505205016 17 277 3.2 8.0 0.00 0.08 0.08 46 1011.8
20260505204515 17 162 3.2 8.0 0.00 0.08 0.08 45 1011.8
20260505204017 17 124 3.2 8.0 0.00 0.08 0.08 46 1011.8
20260505203515 18 153 1.6 8.0 0.00 0.08 0.08 45 1011.9
20260505203016 17 217 3.2 9.7 0.00 0.08 0.08 47 1012.1
20260505202518 17 323 3.2 9.7 0.00 0.08 0.08 49 1012.3
20260505202511 17 302 3.2 12.9 0.00 0.08 0.08 50 1012.3
20260505201509 16 75 3.2 12.9 0.00 0.08 0.08 51 1012.0
20260505201015 16 321 1.6 9.7 0.00 0.08 0.08 53 1012.0
20260505201009 17 44 3.2 9.7 0.00 0.08 0.08 51 1012.0
20260505200009 17 268 1.6 9.7 0.00 0.08 0.08 52 1012.1
20260505195510 16 273 1.6 8.0 0.00 0.08 0.08 54 1012.1
20260505195006 16 146 1.6 8.0 0.00 0.08 0.08 56 1012.3
20260505194506 15 295 1.6 8.0 0.00 0.08 0.08 57 1012.5
20260505194006 15 281 1.6 8.0 0.03 0.08 0.08 59 1012.6
20260505193509 15 314 3.2 11.3 0.03 0.08 0.08 63 1012.6
20260505193503 15 136 1.6 6.4 0.03 0.08 0.08 62 1012.6
20260505192500 15 293 3.2 11.3 0.03 0.08 0.08 59 1012.7
20260505191958 15 291 1.6 8.0 0.05 0.08 0.08 58 1012.7
20260505191457 15 359 1.6 8.0 0.05 0.08 0.08 60 1012.8
20260505190958 15 286 1.6 6.4 0.05 0.08 0.08 61 1013.0
20260505190456 14 319 1.6 6.4 0.05 0.08 0.08 67 1013.0
20260505190005 12 311 1.6 8.0 0.05 0.08 0.08 72 1013.0
20260505185957 13 284 1.6 8.0 0.05 0.08 0.08 72 1013.0
20260505185456 12 332 1.6 6.4 0.05 0.08 0.08 73 1013.0
20260505184454 12 312 3.2 8.0 0.05 0.08 0.08 69 1013.1
20260505183956 12 300 1.6 8.0 0.03 0.05 0.05 67 1013.1
20260505183504 13 275 1.6 6.4 0.03 0.05 0.05 62 1013.1
20260505183456 13 283 1.6 6.4 0.03 0.05 0.05 65 1013.1
20260505182456 14 269 0.0 4.8 0.03 0.05 0.05 60 1013.0
20260505181955 15 311 0.0 4.8 0.00 0.03 0.03 59 1012.8
20260505181454 15 240 0.0 3.2 0.00 0.03 0.03 53 1013.0
20260505180953 15 181 1.6 8.0 0.00 0.03 0.03 50 1013.0
20260505180454 16 211 1.6 8.0 0.00 0.03 0.03 50 1013.0
20260505175954 16 221 1.6 8.0 0.00 0.03 0.03 50 1012.8
20260505175452 16 134 1.6 8.0 0.00 0.03 0.03 47 1012.8
20260505174956 16 203 1.6 8.0 0.00 0.03 0.03 45 1012.8
20260505174453 16 150 1.6 8.0 0.00 0.03 0.03 45 1012.7
20260505173954 16 69 1.6 6.4 0.00 0.03 0.03 45 1012.7
20260505173451 16 71 1.6 6.4 0.00 0.03 0.03 45 1012.7
20260505172951 16 68 1.6 8.0 0.00 0.03 0.03 45 1012.7
20260505172452 16 297 1.6 8.0 0.00 0.03 0.03 45 1012.7
20260505171949 16 328 1.6 8.0 0.00 0.03 0.03 46 1012.8
20260505171449 16 323 1.6 6.4 0.00 0.03 0.03 46 1012.8
20260505171116 15 292 1.6 8.0 0.00 0.03 0.03 51 1013.1
20260505170955 15 315 1.6 4.8 0.00 0.03 0.03 48 1012.8
20260505170949 15 281 1.6 6.4 0.00 0.03 0.03 47 1012.8
20260505165449 14 349 1.6 8.0 0.00 0.03 0.03 51 1013.2
20260505164951 14 319 1.6 6.4 0.00 0.03 0.03 51 1013.1
20260505164450 13 77 1.6 6.4 0.00 0.03 0.03 54 1013.0
20260505163950 13 304 1.6 6.4 0.00 0.03 0.03 54 1012.8
20260505163448 13 301 1.6 8.0 0.00 0.03 0.03 55 1013.1
20260505162948 13 66 1.6 9.7 0.00 0.03 0.03 55 1013.2
20260505162456 12 326 3.2 9.7 0.00 0.03 0.03 58 1013.1
20260505162450 13 60 1.6 9.7 0.00 0.03 0.03 59 1013.2
20260505161449 12 316 3.2 11.3 0.00 0.03 0.03 58 1013.2
20260505160948 12 340 3.2 11.3 0.00 0.03 0.03 59 1013.4
20260505160449 12 77 3.2 11.3 0.00 0.03 0.03 59 1013.4
20260505152949 12 312 3.2 11.3 0.03 0.03 0.03 64 1013.7
20260505152446 12 334 3.2 12.9 0.03 0.03 0.03 63 1013.7
20260505151949 12 341 3.2 12.9 0.03 0.03 0.03 63 1013.7
20260505151448 12 303 3.2 8.0 0.03 0.03 0.03 65 1013.7
20260505150948 12 36 3.2 8.0 0.03 0.03 0.03 67 1013.7
20260505150446 11 13 1.6 9.7 0.03 0.03 0.03 67 1013.7
20260505124930 14 317 1.6 6.4 0.00 0.00 0.00 46 1012.5
20260505124429 14 304 1.6 6.4 0.00 0.00 0.00 45 1012.4
20260505123928 15 304 1.6 3.2 0.00 0.00 0.00 45 1012.5
20260505123432 15 325 1.6 4.8 0.00 0.00 0.00 43 1012.6
20260505123427 15 296 1.6 4.8 0.00 0.00 0.00 44 1012.6
20260505123051 15 323 1.6 4.8 0.00 0.00 0.00 43 1012.6
20260505121934 15 293 0.0 6.4 0.00 0.00 0.00 43 1012.7
20260505121927 15 306 0.0 4.8 0.00 0.00 0.00 43 1012.6
20260505120932 15 302 1.6 9.7 0.00 0.00 0.00 43 1012.6
20260505120927 15 323 0.0 6.4 0.00 0.00 0.00 43 1012.7
20260505120550 15 250 1.6 9.7 0.00 0.00 0.00 43 1012.5
20260505115430 14 308 0.0 6.4 0.00 0.00 0.00 43 1012.4
20260505115425 15 302 0.0 6.4 0.00 0.00 0.00 43 1012.4
20260505114424 14 75 0.0 0.0 0.00 0.00 0.00 43 1012.4
20260505113924 15 75 0.0 1.6 0.00 0.00 0.00 43 1012.3
20260505113424 15 75 0.0 1.6 0.00 0.00 0.00 42 1012.1
20260505112928 15 78 0.0 3.2 0.00 0.00 0.00 41 1012.3
20260505112923 15 78 0.0 3.2 0.00 0.00 0.00 41 1012.3
20260505112546 15 79 1.6 4.8 0.00 0.00 0.00 40 1012.1
20260505111921 15 79 1.6 4.8 0.00 0.00 0.00 40 1012.1
20260505110923 15 328 0.0 1.6 0.00 0.00 0.00 39 1012.1
20260505110426 15 285 0.0 4.8 0.00 0.00 0.00 38 1012.4
20260505110422 15 320 0.0 1.6 0.00 0.00 0.00 39 1012.4
20260505101918 15 214 0.0 1.6 0.00 0.00 0.00 36 1012.6
20260505101425 15 279 0.0 3.2 0.00 0.00 0.00 36 1012.5
20260505101418 15 213 0.0 1.6 0.00 0.00 0.00 36 1012.5
20260505100420 15 319 0.0 4.8 0.00 0.00 0.00 35 1012.3
20260505095924 15 261 0.0 4.8 0.00 0.00 0.00 35 1012.3
20260505095918 15 270 0.0 4.8 0.00 0.00 0.00 35 1012.3
20260505094918 15 293 0.0 1.6 0.00 0.00 0.00 36 1012.3
20260505094421 15 288 0.0 1.6 0.00 0.00 0.00 36 1012.4
20260505094416 15 288 0.0 1.6 0.00 0.00 0.00 36 1012.3
20260505094046 15 288 0.0 1.6 0.00 0.00 0.00 35 1012.3
20260505094040 15 288 0.0 0.0 0.00 0.00 0.00 36 1012.3
20260505092416 15 288 0.0 1.6 0.00 0.00 0.00 35 1012.3
20260505091917 15 288 0.0 0.0 0.00 0.00 0.00 34 1012.4
20260505091419 15 288 0.0 0.0 0.00 0.00 0.00 35 1012.4
20260505090922 15 315 0.0 1.6 0.00 0.00 0.00 35 1012.4
20260505090916 15 315 0.0 1.6 0.00 0.00 0.00 35 1012.5
20260505085915 15 248 0.0 1.6 0.00 0.00 0.00 35 1012.6
20260505085416 15 222 0.0 1.6 0.00 0.00 0.00 35 1012.7
20260505084918 15 217 0.0 1.6 0.00 0.00 0.00 34 1012.7
20260505084912 16 217 0.0 4.8 0.00 0.00 0.00 34 1012.7
20260505083919 16 149 0.0 3.2 0.00 0.00 0.00 33 1013.0
20260505083912 16 213 0.0 4.8 0.00 0.00 0.00 33 1013.0
20260505082917 16 284 1.6 4.8 0.00 0.00 0.00 32 1013.0
20260505082911 16 225 0.0 4.8 0.00 0.00 0.00 32 1013.1
20260505081911 16 259 1.6 6.4 0.00 0.00 0.00 32 1012.8
20260505081414 16 257 1.6 9.7 0.00 0.00 0.00 32 1012.7
20260505080910 16 175 1.6 11.3 0.00 0.00 0.00 31 1012.7
20260505080417 16 280 1.6 9.7 0.00 0.00 0.00 31 1012.8
20260505080409 16 8 1.6 11.3 0.00 0.00 0.00 31 1012.7
20260505080036 16 275 1.6 8.0 0.00 0.00 0.00 32 1013.0
20260505074911 17 220 1.6 12.9 0.00 0.00 0.00 32 1013.0
20260505074412 17 124 3.2 12.9 0.00 0.00 0.00 32 1012.8
20260505073911 17 284 3.2 12.9 0.00 0.00 0.00 31 1012.8
20260505073411 17 202 3.2 14.5 0.00 0.00 0.00 31 1012.8
20260505072916 17 207 3.2 11.3 0.00 0.00 0.00 31 1012.8
20260505072911 17 340 3.2 14.5 0.00 0.00 0.00 31 1012.7
20260505071908 17 246 3.2 11.3 0.00 0.00 0.00 31 1012.8
20260505071408 17 317 1.6 17.7 0.00 0.00 0.00 31 1012.8
20260505070907 17 240 3.2 17.7 0.00 0.00 0.00 31 1012.8
20260505070407 17 170 3.2 16.1 0.00 0.00 0.00 31 1012.8
20260505065905 17 46 4.8 17.7 0.00 0.00 0.00 30 1012.6
20260505065413 17 171 4.8 19.3 0.00 0.00 0.00 30 1012.5
20260505065408 17 258 4.8 17.7 0.00 0.00 0.00 30 1012.6
20260505065029 18 238 4.8 19.3 0.00 0.00 0.00 29 1012.5
20260505063906 18 284 4.8 16.1 0.00 0.00 0.00 29 1012.4
20260505063407 18 225 4.8 16.1 0.00 0.00 0.00 28 1012.4
20260505062903 18 270 3.2 12.9 0.00 0.00 0.00 28 1012.3
20260505062404 18 326 3.2 12.9 0.00 0.00 0.00 28 1012.0
20260505061904 18 173 1.6 12.9 0.00 0.00 0.00 28 1012.3
20260505061405 18 329 1.6 8.0 0.00 0.00 0.00 28 1012.4
20260505060904 18 329 3.2 8.0 0.00 0.00 0.00 27 1012.3
20260505060402 18 271 1.6 12.9 0.00 0.00 0.00 27 1012.5
20260505055902 18 277 1.6 12.9 0.00 0.00 0.00 27 1012.4
20260505055402 18 300 1.6 11.3 0.00 0.00 0.00 27 1012.5
20260505054903 18 279 3.2 11.3 0.00 0.00 0.00 27 1012.4
20260505054402 18 323 3.2 12.9 0.00 0.00 0.00 27 1012.4
20260505053904 18 269 3.2 12.9 0.00 0.00 0.00 26 1012.4
20260505053401 18 306 3.2 9.7 0.00 0.00 0.00 26 1012.3
20260505052908 19 248 3.2 12.9 0.00 0.00 0.00 25 1012.3
20260505052903 19 246 3.2 12.9 0.00 0.00 0.00 26 1012.3
20260505051859 19 285 1.6 8.0 0.00 0.00 0.00 25 1012.1
20260505051400 19 226 1.6 8.0 0.00 0.00 0.00 25 1012.1
20260505050901 19 270 1.6 9.7 0.00 0.00 0.00 25 1012.1
20260505050359 19 68 3.2 9.7 0.00 0.00 0.00 25 1012.0
20260505041350 20 266 0.0 6.4 0.00 0.00 0.00 25 1011.9
20260505040849 20 110 1.6 8.0 0.00 0.00 0.00 25 1011.8
20260505040349 20 227 1.6 8.0 0.00 0.00 0.00 25 1011.9
20260505035851 20 227 0.0 4.8 0.00 0.00 0.00 25 1011.9
20260505035354 20 269 0.0 3.2 0.00 0.00 0.00 25 1011.9
20260505035348 20 295 0.0 6.4 0.00 0.00 0.00 25 1011.8
20260505034347 20 241 1.6 8.0 0.00 0.00 0.00 25 1011.8
20260505033853 20 245 0.0 6.4 0.00 0.00 0.00 24 1011.6
20260505033849 20 279 0.0 8.0 0.00 0.00 0.00 24 1011.6
20260505032846 20 277 0.0 6.4 0.00 0.00 0.00 24 1011.4
20260505032347 21 276 1.6 9.7 0.00 0.00 0.00 23 1011.3
20260505031852 21 293 3.2 12.9 0.00 0.00 0.00 23 1011.2
20260505031848 21 282 3.2 9.7 0.00 0.00 0.00 23 1011.3
20260505030854 21 149 3.2 12.9 0.00 0.00 0.00 23 1011.1
20260505030848 21 299 3.2 12.9 0.00 0.00 0.00 23 1011.3
20260505025849 21 304 4.8 11.3 0.00 0.00 0.00 23 1011.0
20260505025348 21 278 4.8 11.3 0.00 0.00 0.00 22 1011.0
20260505024847 21 251 4.8 12.9 0.00 0.00 0.00 22 1011.0